 day, avr_air_temp(C), avr_RH(%), avr_ground_temp10cm(C), avr_ground_temp20cm(C), avr_ground_temp40cm(C), sum_precipitation(mm/h), sum_Solar_Radiation(MJ/m2h), max_air_temp(C), max_air_temp(time), max_RH(%), max_RH(time), max_ground_temp10cm(C), max_ground_temp10cm(time), max_ground_temp20cm(C), max_ground_temp20cm(time), max_ground_temp40cm(C), max_ground_temp40cm(time), max_precipitation(mm/h), max_precipitation(time), max_Solar_Radiation(MJ/m2h), max_Solar_Radiation(time), min_air_temp(C), min_air_temp(time), min_RH(%), min_RH(time), min_ground_temp10cm(C), min_ground_temp10cm(time), min_ground_temp20cm(C), min_ground_temp20cm(time), min_ground_temp40cm(C), min_ground_temp40cm(time), 
 06/01/01, -2.9, 83, 1.2, 2, 3.3, 0, 9.64, -0.6,  06/01/01 12:00, 94, 06/01/01 18:00, 1.3, 06/01/01 13:00, 2, 06/01/01 01:00, 3.4, 06/01/01 01:00, 0,   /  /     :, 2.02, 06/01/01 12:00, -6.2,  06/01/01 03:00, 71, 06/01/01 11:00, 1.2, 06/01/01 01:00, 2, 06/01/01 01:00, 3.3, 06/01/01 04:00, 
 06/01/02, -2.6, 93, 1.2, 1.9, 3.3, 5.5, 2.38, -0.7,  06/01/02 04:00, 99, 06/01/02 07:00, 1.2, 06/01/02 01:00, 2, 06/01/02 01:00, 3.3, 06/01/02 01:00, 1.5, 06/01/02 18:00, 0.69, 06/01/02 12:00, -5.5,  06/01/03 00:00, 79, 06/01/02 01:00, 1.2, 06/01/02 01:00, 1.9, 06/01/02 07:00, 3.3, 06/01/02 01:00, 
 06/01/03, -7.1, 96, 1.2, 1.9, 3.3, 22.5, 2.93, -5.6,  06/01/03 01:00, 97, 06/01/03 01:00, 1.2, 06/01/03 01:00, 1.9, 06/01/03 01:00, 3.3, 06/01/03 01:00, 2.5, 06/01/03 08:00, 0.61, 06/01/03 14:00, -8.6,  06/01/04 00:00, 88, 06/01/03 04:00, 1.2, 06/01/03 01:00, 1.9, 06/01/03 01:00, 3.3, 06/01/03 01:00, 
 06/01/04, -8.3, 92, 1.3, 2, 3.2, 7.5, 3.28, -6.8,  06/01/04 12:00, 99, 06/01/04 11:00, 1.3, 06/01/04 12:00, 2, 06/01/04 12:00, 3.3, 06/01/04 01:00, 4, 06/01/04 11:00, 0.77, 06/01/04 12:00, -9.3,  06/01/04 06:00, 88, 06/01/04 16:00, 1.2, 06/01/04 01:00, 1.9, 06/01/04 01:00, 3.2, 06/01/04 05:00, 
 06/01/05, -10.2, 88, 1.2, 1.9, 3.2, 1.5, 4.46, -8.1,  06/01/05 14:00, 92, 06/01/05 20:00, 1.3, 06/01/05 12:00, 2, 06/01/05 01:00, 3.2, 06/01/05 01:00, 0.5, 06/01/05 05:00, 0.97, 06/01/05 13:00, -13.1,  06/01/06 00:00, 76, 06/01/05 11:00, 1.2, 06/01/05 01:00, 1.9, 06/01/05 02:00, 3.2, 06/01/05 01:00, 
 06/01/06, -11, 82, 1.2, 1.9, 3.2, 0.5, 6.84, -8,  06/01/06 14:00, 93, 06/01/06 11:00, 1.3, 06/01/06 10:00, 2, 06/01/06 10:00, 3.3, 06/01/06 11:00, 0.5, 06/01/06 03:00, 2.03, 06/01/06 11:00, -15.1,  06/01/06 02:00, 66, 06/01/06 10:00, 1.2, 06/01/06 01:00, 1.9, 06/01/06 01:00, 3.2, 06/01/06 01:00, 
 06/01/07, -10, 86, 1.1, 1.9, 3.2, 2, 6.45, -8.3,  06/01/07 12:00, 94, 06/01/07 07:00, 1.2, 06/01/07 01:00, 1.9, 06/01/07 01:00, 3.2, 06/01/07 01:00, 0.5, 06/01/07 09:00, 1.2, 06/01/07 14:00, -12.2,  06/01/07 02:00, 71, 06/01/07 01:00, 1.1, 06/01/07 06:00, 1.8, 06/01/07 13:00, 3.1, 06/01/07 15:00, 
 06/01/08, -9.6, 87, 1.1, 1.8, 3.1, 1.5, 5.48, -7,  06/01/08 14:00, 91, 06/01/08 01:00, 1.1, 06/01/08 01:00, 1.8, 06/01/08 01:00, 3.1, 06/01/08 01:00, 0.5, 06/01/08 03:00, 0.89, 06/01/08 14:00, -11.3,  06/01/08 05:00, 83, 06/01/08 04:00, 1.1, 06/01/08 01:00, 1.8, 06/01/08 01:00, 3.1, 06/01/08 01:00, 
 06/01/09, -8.5, 69, 1.1, 1.8, 3.1, 0.5, 13.19, -4.1,  06/01/09 14:00, 84, 06/01/09 14:00, 1.1, 06/01/09 01:00, 1.8, 06/01/09 01:00, 3.1, 06/01/09 01:00, 0.5, 06/01/09 02:00, 2.43, 06/01/09 12:00, -12.9,  06/01/09 08:00, 46, 06/01/09 20:00, 1, 06/01/09 16:00, 1.8, 06/01/09 01:00, 3.1, 06/01/09 01:00, 
 06/01/10, -6.1, 84, 1.1, 1.8, 3.1, 3, 6.13, -3.2,  06/01/10 12:00, 97, 06/01/10 19:00, 1.2, 06/01/10 14:00, 1.8, 06/01/10 01:00, 3.1, 06/01/10 01:00, 0.5, 06/01/10 18:00, 1.21, 06/01/10 14:00, -9.7,  06/01/10 02:00, 52, 06/01/10 01:00, 1, 06/01/10 01:00, 1.7, 06/01/10 03:00, 3, 06/01/10 07:00, 
 06/01/11, -6.2, 89, 1.1, 1.8, 3.1, 6.5, 5.71, -2.7,  06/01/11 14:00, 97, 06/01/11 10:00, 1.2, 06/01/11 13:00, 1.8, 06/01/11 01:00, 3.1, 06/01/11 01:00, 2.5, 06/01/11 10:00, 1.14, 06/01/11 13:00, -8.5,  06/01/12 00:00, 78, 06/01/11 12:00, 1, 06/01/11 09:00, 1.7, 06/01/11 02:00, 3, 06/01/11 03:00, 
 06/01/12, -6.2, 79, 1.1, 1.7, 3.1, 0.5, 9.95, -2.6,  06/01/12 14:00, 97, 06/01/12 19:00, 1.1, 06/01/12 01:00, 1.8, 06/01/12 01:00, 3.1, 06/01/12 01:00, 0.5, 06/01/12 07:00, 2.32, 06/01/12 13:00, -8.8,  06/01/12 02:00, 42, 06/01/12 22:00, 1.1, 06/01/12 01:00, 1.7, 06/01/12 04:00, 3, 06/01/12 08:00, 
 06/01/13, 0, 64, 1, 1.7, 2.9, 3.5, 3.89, 2.9,  06/01/13 20:00, 97, 06/01/14 00:00, 1.1, 06/01/13 01:00, 1.8, 06/01/13 05:00, 3.1, 06/01/13 05:00, 2, 06/01/13 23:00, 0.8, 06/01/13 14:00, -4.4,  06/01/13 02:00, 27, 06/01/13 01:00, 1, 06/01/13 02:00, 1.7, 06/01/13 01:00, 2.9, 06/01/13 07:00, 
 06/01/14, 3.8, 99, 1.1, 1.7, 2.9, 36, 0.34, 6.7,  06/01/14 13:00, 99, 06/01/14 06:00, 1.1, 06/01/14 14:00, 1.7, 06/01/14 01:00, 2.9, 06/01/14 01:00, 7, 06/01/14 17:00, 0.05, 06/01/14 10:00, -0.2,  06/01/14 24:00, 95, 06/01/14 04:00, 1, 06/01/14 01:00, 1.6, 06/01/14 22:00, 2.8, 06/01/14 23:00, 
 06/01/15, -1.3, 97, 1, 1.6, 2.8, 0.5, 8.04, 0.6,  06/01/16 00:00, 99, 06/01/15 01:00, 1.1, 06/01/15 06:00, 1.7, 06/01/15 15:00, 2.9, 06/01/15 15:00, 0.5, 06/01/15 09:00, 1.62, 06/01/15 13:00, -2.8,  06/01/15 08:00, 89, 06/01/15 15:00, 1, 06/01/15 01:00, 1.6, 06/01/15 01:00, 2.8, 06/01/15 01:00, 
 06/01/16, 0.7, 88, 1, 1.6, 2.7, 0, 9.68, 4,  06/01/16 13:00, 99, 06/01/16 23:00, 1, 06/01/16 01:00, 1.7, 06/01/17 00:00, 2.8, 06/01/16 01:00, 0,   /  /     :, 1.84, 06/01/16 12:00, -2,  06/01/17 00:00, 64, 06/01/16 13:00, 0.9, 06/01/16 08:00, 1.6, 06/01/16 01:00, 2.7, 06/01/16 04:00, 
 06/01/17, -5.2, 92, 1, 1.6, 2.7, 3, 10.67, -2.2,  06/01/17 01:00, 99, 06/01/17 01:00, 1, 06/01/17 01:00, 1.7, 06/01/17 20:00, 2.7, 06/01/17 01:00, 1, 06/01/17 01:00, 2.24, 06/01/17 11:00, -9.2,  06/01/18 00:00, 72, 06/01/17 13:00, 1, 06/01/17 01:00, 1.6, 06/01/17 01:00, 2.7, 06/01/17 01:00, 
 06/01/18, -7.3, 75, 1, 1.6, 2.7, 0.5, 8.09, -4,  06/01/18 14:00, 93, 06/01/18 01:00, 1.2, 06/01/18 16:00, 1.7, 06/01/18 14:00, 2.8, 06/01/18 14:00, 0.5, 06/01/18 12:00, 1.57, 06/01/18 14:00, -9.6,  06/01/18 05:00, 59, 06/01/18 15:00, 0.9, 06/01/18 05:00, 1.6, 06/01/18 01:00, 2.7, 06/01/18 01:00, 
 06/01/19, -10.2, 82, 1, 1.6, 2.8, 0, 11.62, -7.2,  06/01/19 14:00, 92, 06/01/19 19:00, 1.1, 06/01/19 12:00, 1.7, 06/01/19 01:00, 2.8, 06/01/19 01:00, 0,   /  /     :, 2.25, 06/01/19 13:00, -13.2,  06/01/20 00:00, 64, 06/01/19 14:00, 0.9, 06/01/19 19:00, 1.5, 06/01/19 04:00, 2.7, 06/01/19 03:00, 
 06/01/20, -7.6, 73, 0.8, 1.5, 2.7, 0, 10.8, -3.2,  06/01/20 16:00, 92, 06/01/20 08:00, 0.9, 06/01/20 01:00, 1.6, 06/01/20 03:00, 2.8, 06/01/20 03:00, 0,   /  /     :, 1.8, 06/01/20 13:00, -13.8,  06/01/20 02:00, 46, 06/01/20 19:00, 0.8, 06/01/20 02:00, 1.4, 06/01/20 07:00, 2.7, 06/01/20 01:00, 
 06/01/21, -5.2, 70, 0.8, 1.4, 2.7, 0, 6.36, -3.1,  06/01/21 01:00, 96, 06/01/21 23:00, 0.8, 06/01/21 01:00, 1.4, 06/01/21 01:00, 2.7, 06/01/21 01:00, 0,   /  /     :, 1.11, 06/01/21 13:00, -8.3,  06/01/22 00:00, 49, 06/01/21 02:00, 0.7, 06/01/21 14:00, 1.4, 06/01/21 01:00, 2.7, 06/01/21 01:00, 
 06/01/22, -8.8, 81, 0.7, 1.3, 2.7, 6.5, 12.54, -3.7,  06/01/22 14:00, 98, 06/01/22 19:00, 0.8, 06/01/22 12:00, 1.4, 06/01/22 01:00, 2.7, 06/01/22 01:00, 1.5, 06/01/22 22:00, 2.3, 06/01/22 13:00, -12.9,  06/01/22 08:00, 41, 06/01/22 11:00, 0.6, 06/01/22 22:00, 1.3, 06/01/22 08:00, 2.6, 06/01/22 08:00, 
 06/01/23, -10.8, 94, 0.5, 1.3, 2.6, 14, 5.38, -9.2,  06/01/24 00:00, 99, 06/01/23 09:00, 0.6, 06/01/23 01:00, 1.3, 06/01/23 01:00, 2.6, 06/01/23 01:00, 5.5, 06/01/23 11:00, 1.28, 06/01/23 14:00, -12.7,  06/01/23 04:00, 89, 06/01/23 16:00, 0.5, 06/01/23 05:00, 1.2, 06/01/23 09:00, 2.5, 06/01/23 09:00, 
 06/01/24, -8.8, 87, 0.5, 1.1, 2.5, 3.5, 6.41, -7.3,  06/01/24 12:00, 98, 06/01/24 09:00, 0.5, 06/01/24 01:00, 1.1, 06/01/24 01:00, 2.5, 06/01/24 01:00, 0.5, 06/01/24 01:00, 1.15, 06/01/24 14:00, -10.3,  06/01/25 00:00, 74, 06/01/24 15:00, 0.5, 06/01/24 01:00, 1.1, 06/01/24 01:00, 2.4, 06/01/24 08:00, 
 06/01/25, -8.3, 82, 0.5, 1.2, 2.5, 0.5, 13.38, -5.4,  06/01/25 14:00, 94, 06/01/25 20:00, 0.6, 06/01/25 11:00, 1.2, 06/01/25 11:00, 2.5, 06/01/25 01:00, 0.5, 06/01/25 05:00, 2.21, 06/01/25 13:00, -11.8,  06/01/25 06:00, 68, 06/01/25 16:00, 0.5, 06/01/25 01:00, 1.1, 06/01/25 01:00, 2.4, 06/01/25 02:00, 
 06/01/26, -7.5, 82, 0.5, 1.1, 2.5, 3, 7.64, -5.1,  06/01/26 14:00, 94, 06/01/26 08:00, 0.6, 06/01/26 12:00, 1.2, 06/01/26 01:00, 2.5, 06/01/26 01:00, 0.5, 06/01/26 04:00, 1.7, 06/01/26 14:00, -9.4,  06/01/26 02:00, 67, 06/01/26 13:00, 0.5, 06/01/26 01:00, 1.1, 06/01/26 02:00, 2.4, 06/01/26 08:00, 
 06/01/27, -5.7, 90, 0.5, 1.1, 2.5, 6, 6.78, -3.8,  06/01/27 12:00, 99, 06/01/27 11:00, 0.5, 06/01/27 01:00, 1.1, 06/01/27 01:00, 2.5, 06/01/27 01:00, 2, 06/01/27 21:00, 1.69, 06/01/27 14:00, -8.7,  06/01/27 01:00, 71, 06/01/27 05:00, 0.5, 06/01/27 01:00, 1.1, 06/01/27 01:00, 2.4, 06/01/27 02:00, 
 06/01/28, -8.4, 93, 0.5, 1.1, 2.3, 6.5, 11.22, -5.6,  06/01/28 13:00, 99, 06/01/28 01:00, 0.5, 06/01/28 01:00, 1.2, 06/01/28 12:00, 2.5, 06/01/28 02:00, 1, 06/01/28 03:00, 2.14, 06/01/28 14:00, -11.9,  06/01/29 00:00, 84, 06/01/28 15:00, 0.4, 06/01/28 23:00, 1.1, 06/01/28 01:00, 2.3, 06/01/28 05:00, 
 06/01/29, -2, 48, 0.5, 1.1, 2.3, 0.5, 14.9, 4.4,  06/01/29 14:00, 92, 06/01/29 01:00, 0.5, 06/01/29 01:00, 1.2, 06/01/29 13:00, 2.4, 06/01/29 12:00, 0.5, 06/01/29 01:00, 2.44, 06/01/29 13:00, -12.3,  06/01/29 01:00, 20, 06/01/29 19:00, 0.4, 06/01/29 05:00, 1.1, 06/01/29 01:00, 2.3, 06/01/29 01:00, 
 06/01/30, 1.7, 87, 0.5, 1.1, 2.3, 1, 3.03, 3.5,  06/01/30 19:00, 99, 06/01/30 06:00, 0.5, 06/01/30 01:00, 1.1, 06/01/30 01:00, 2.4, 06/01/30 01:00, 0.5, 06/01/30 07:00, 0.61, 06/01/30 13:00, 0,  06/01/30 07:00, 71, 06/01/30 17:00, 0.5, 06/01/30 01:00, 1.1, 06/01/30 01:00, 2.3, 06/01/30 03:00, 
 06/01/31, 1, 92, 0.5, 1.1, 2.3, 2, 1.14, 2.8,  06/01/31 12:00, 99, 06/01/31 02:00, 0.6, 06/01/31 18:00, 1.2, 06/01/31 17:00, 2.4, 06/01/31 14:00, 1, 06/01/31 15:00, 0.18, 06/01/31 09:00, -1.3,  06/01/31 07:00, 69, 06/01/31 09:00, 0.5, 06/01/31 01:00, 1.1, 06/01/31 01:00, 2.3, 06/01/31 01:00, 
 06/02/01, 0.7, 96, 0.7, 1.2, 2.4, 29.5, 0.93, 4.8,  06/02/01 09:00, 99, 06/02/01 08:00, 0.7, 06/02/01 11:00, 1.2, 06/02/01 01:00, 2.4, 06/02/01 01:00, 5, 06/02/01 12:00, 0.19, 06/02/01 11:00, -4.6,  06/02/02 00:00, 83, 06/02/01 02:00, 0.6, 06/02/01 01:00, 1.1, 06/02/01 02:00, 2.3, 06/02/01 07:00, 
 06/02/02, -4.8, 90, 0.7, 1.2, 2.3, 3.5, 7.26, -2.9,  06/02/02 13:00, 99, 06/02/02 10:00, 0.8, 06/02/02 16:00, 1.2, 06/02/02 01:00, 2.3, 06/02/02 01:00, 2.5, 06/02/02 10:00, 1.43, 06/02/02 13:00, -7.2,  06/02/02 08:00, 75, 06/02/02 15:00, 0.7, 06/02/02 01:00, 1.2, 06/02/02 01:00, 2.3, 06/02/02 01:00, 
 06/02/03, -7.5, 94, 0.7, 1.2, 2.3, 3.5, 2.5, -4.2,  06/02/03 11:00, 99, 06/02/03 04:00, 0.8, 06/02/03 01:00, 1.3, 06/02/03 11:00, 2.3, 06/02/03 01:00, 1, 06/02/03 14:00, 0.74, 06/02/03 15:00, -13.7,  06/02/04 00:00, 84, 06/02/03 16:00, 0.7, 06/02/03 02:00, 1.1, 06/02/03 08:00, 2.2, 06/02/03 08:00, 
 06/02/04, -13, 83, 0.8, 1.2, 2.2, 1.5, 7.78, -9.6,  06/02/04 14:00, 94, 06/02/05 00:00, 0.8, 06/02/04 01:00, 1.3, 06/02/04 11:00, 2.3, 06/02/04 01:00, 0.5, 06/02/04 01:00, 1.15, 06/02/04 14:00, -15.2,  06/02/04 04:00, 63, 06/02/04 15:00, 0.7, 06/02/05 00:00, 1.2, 06/02/04 01:00, 2.2, 06/02/04 02:00, 
 06/02/05, -11.4, 81, 0.7, 1.2, 2.2, 4, 10.14, -9.2,  06/02/05 15:00, 93, 06/02/05 09:00, 0.8, 06/02/05 10:00, 1.2, 06/02/05 01:00, 2.3, 06/02/05 13:00, 1, 06/02/05 02:00, 1.71, 06/02/05 15:00, -13.7,  06/02/05 20:00, 62, 06/02/06 00:00, 0.6, 06/02/05 20:00, 1.2, 06/02/05 01:00, 2.2, 06/02/05 01:00, 
 06/02/06, -5.9, 86, 0.6, 1.2, 2.2, 6.5, 5.59, -0.9,  06/02/07 00:00, 99, 06/02/06 19:00, 0.7, 06/02/06 01:00, 1.2, 06/02/06 01:00, 2.2, 06/02/06 01:00, 1.5, 06/02/06 22:00, 1.71, 06/02/06 13:00, -12.2,  06/02/06 01:00, 70, 06/02/06 08:00, 0.5, 06/02/07 00:00, 1.1, 06/02/06 13:00, 2.2, 06/02/06 01:00, 
 06/02/07, -0.6, 98, 0.6, 1.1, 2.2, 6, 2.24, 2.7,  06/02/07 05:00, 99, 06/02/07 01:00, 0.6, 06/02/07 01:00, 1.1, 06/02/07 01:00, 2.2, 06/02/07 01:00, 1.5, 06/02/07 12:00, 0.49, 06/02/07 16:00, -5.5,  06/02/07 23:00, 94, 06/02/07 19:00, 0.5, 06/02/07 02:00, 1.1, 06/02/07 01:00, 2.2, 06/02/07 01:00, 
 06/02/08, -6, 99, 0.6, 1.1, 2.2, 17.5, 2.16, -4,  06/02/08 13:00, 99, 06/02/08 01:00, 0.7, 06/02/09 00:00, 1.1, 06/02/08 01:00, 2.2, 06/02/08 01:00, 3, 06/02/08 15:00, 0.31, 06/02/08 13:00, -8.6,  06/02/09 00:00, 97, 06/02/08 08:00, 0.5, 06/02/08 10:00, 1.1, 06/02/08 01:00, 2.2, 06/02/08 01:00, 
 06/02/09, -10.5, 93, 0.7, 1.2, 2.3, 3, 8.19, -7.4,  06/02/09 14:00, 99, 06/02/09 11:00, 0.8, 06/02/09 17:00, 1.2, 06/02/09 14:00, 2.3, 06/02/09 13:00, 0.5, 06/02/09 01:00, 1.93, 06/02/09 14:00, -13.9,  06/02/09 23:00, 81, 06/02/09 17:00, 0.7, 06/02/09 01:00, 1.1, 06/02/09 01:00, 2.2, 06/02/09 01:00, 
 06/02/10, -7.6, 87, 0.7, 1.2, 2.2, 0.5, 13.08, -3.7,  06/02/10 14:00, 98, 06/02/10 11:00, 0.8, 06/02/10 15:00, 1.3, 06/02/10 13:00, 2.3, 06/02/10 12:00, 0.5, 06/02/10 10:00, 2.48, 06/02/10 11:00, -12.4,  06/02/10 01:00, 72, 06/02/10 06:00, 0.7, 06/02/10 01:00, 1.1, 06/02/10 01:00, 2.2, 06/02/10 01:00, 
 06/02/11, -4.3, 98, 0.7, 1.1, 2.2, 5, 3.43, -1.8,  06/02/11 13:00, 99, 06/02/11 11:00, 0.7, 06/02/11 01:00, 1.1, 06/02/11 01:00, 2.2, 06/02/11 01:00, 1, 06/02/11 17:00, 0.64, 06/02/11 12:00, -5.9,  06/02/11 01:00, 95, 06/02/11 15:00, 0.7, 06/02/11 01:00, 1.1, 06/02/11 01:00, 2.2, 06/02/11 01:00, 
 06/02/12, -10, 86, 0.7, 1.1, 2.2, 2.5, 9.41, -5.3,  06/02/12 01:00, 98, 06/02/12 02:00, 0.7, 06/02/12 01:00, 1.1, 06/02/12 01:00, 2.2, 06/02/12 01:00, 0.5, 06/02/12 01:00, 1.67, 06/02/12 14:00, -12.5,  06/02/12 21:00, 69, 06/02/13 00:00, 0.6, 06/02/12 07:00, 1.1, 06/02/12 01:00, 2.2, 06/02/12 01:00, 
 06/02/13, -2.1, 49, 0.7, 1.1, 2.2, 0, 17.32, 4.5,  06/02/13 16:00, 80, 06/02/13 01:00, 0.7, 06/02/13 01:00, 1.1, 06/02/13 01:00, 2.2, 06/02/13 01:00, 0,   /  /     :, 2.7, 06/02/13 13:00, -12.6,  06/02/13 01:00, 21, 06/02/13 06:00, 0.6, 06/02/13 02:00, 1.1, 06/02/13 01:00, 2.2, 06/02/13 01:00, 
 06/02/14, 3.2, 57, 0.7, 1.1, 2.2, 7.5, 6.8, 6.4,  06/02/14 11:00, 99, 06/02/14 16:00, 0.7, 06/02/14 01:00, 1.2, 06/02/14 10:00, 2.3, 06/02/14 10:00, 2.5, 06/02/14 18:00, 1.8, 06/02/14 10:00, -0.6,  06/02/14 03:00, 15, 06/02/14 08:00, 0.7, 06/02/14 01:00, 1.1, 06/02/14 01:00, 2.1, 06/02/14 18:00, 
 06/02/15, 5, 89, 0.7, 1.1, 2.1, 3, 12.63, 8.6,  06/02/15 15:00, 99, 06/02/15 01:00, 0.7, 06/02/15 01:00, 1.2, 06/02/15 16:00, 2.2, 06/02/15 01:00, 1, 06/02/15 22:00, 2.47, 06/02/15 12:00, 1.4,  06/02/15 23:00, 68, 06/02/15 15:00, 0.7, 06/02/15 01:00, 1.1, 06/02/15 01:00, 2.1, 06/02/15 04:00, 
 06/02/16, 3, 99, 0.7, 1, 2.1, 17, 0.49, 5.9,  06/02/16 01:00, 99, 06/02/16 01:00, 0.7, 06/02/16 01:00, 1.1, 06/02/16 12:00, 2.2, 06/02/16 03:00, 3, 06/02/16 04:00, 0.11, 06/02/16 10:00, -0.7,  06/02/16 23:00, 94, 06/02/17 00:00, 0.6, 06/02/16 03:00, 1, 06/02/16 01:00, 2, 06/02/16 05:00, 
 06/02/17, -5.4, 84, 0.6, 1, 2, 0.5, 8.64, -1.8,  06/02/17 01:00, 99, 06/02/17 10:00, 0.7, 06/02/17 20:00, 1.1, 06/02/17 08:00, 2, 06/02/17 01:00, 0.5, 06/02/17 10:00, 2.12, 06/02/17 14:00, -10.2,  06/02/18 00:00, 65, 06/02/17 23:00, 0.6, 06/02/17 01:00, 1, 06/02/17 01:00, 2, 06/02/17 01:00, 
 06/02/18, -6.5, 58, 0.6, 1, 2, 0, 17.9, -1,  06/02/18 14:00, 90, 06/02/18 02:00, 0.6, 06/02/18 01:00, 1.1, 06/02/18 12:00, 2, 06/02/18 01:00, 0,   /  /     :, 2.82, 06/02/18 13:00, -12.2,  06/02/18 02:00, 38, 06/02/18 16:00, 0.5, 06/02/18 15:00, 1, 06/02/18 01:00, 1.9, 06/02/18 05:00, 
 06/02/19, -0.8, 33, 0.4, 1, 2, 0, 13.42, 4.2,  06/02/19 12:00, 52, 06/02/19 21:00, 0.5, 06/02/19 01:00, 1, 06/02/19 01:00, 2, 06/02/19 01:00, 0,   /  /     :, 2.44, 06/02/19 12:00, -5.4,  06/02/19 02:00, 21, 06/02/19 11:00, 0.4, 06/02/19 07:00, 0.9, 06/02/19 04:00, 1.9, 06/02/19 06:00, 
 06/02/20, 0.5, 67, 0.4, 1, 2, 10.5, 3.08, 2.7,  06/02/20 10:00, 99, 06/02/20 13:00, 0.4, 06/02/20 01:00, 1, 06/02/20 04:00, 2, 06/02/20 04:00, 2.5, 06/02/20 15:00, 1.04, 06/02/20 09:00, -1.8,  06/02/20 11:00, 11, 06/02/20 07:00, 0.4, 06/02/20 01:00, 0.9, 06/02/20 01:00, 1.9, 06/02/20 01:00, 
 06/02/21, 2.5, 92, 0.4, 0.9, 2, 0, 15.32, 6.4,  06/02/21 10:00, 99, 06/02/21 01:00, 0.4, 06/02/21 01:00, 1, 06/02/21 04:00, 2, 06/02/21 01:00, 0,   /  /     :, 2.32, 06/02/21 11:00, -0.5,  06/02/21 07:00, 57, 06/02/21 10:00, 0.4, 06/02/21 01:00, 0.8, 06/02/22 00:00, 1.9, 06/02/21 07:00, 
 06/02/22, 2.6, 66, 0.5, 0.9, 1.9, 0.5, 17.49, 7.9,  06/02/22 14:00, 99, 06/02/22 22:00, 0.5, 06/02/22 11:00, 1, 06/02/22 12:00, 2, 06/02/22 01:00, 0.5, 06/02/22 04:00, 2.76, 06/02/22 12:00, -1.3,  06/02/22 07:00, 29, 06/02/22 14:00, 0.4, 06/02/22 01:00, 0.8, 06/02/22 02:00, 1.8, 06/02/22 06:00, 
 06/02/23, -1.5, 93, 0.6, 0.9, 1.9, 0.5, 4.31, 1.2,  06/02/23 01:00, 99, 06/02/23 01:00, 0.6, 06/02/23 11:00, 1, 06/02/23 16:00, 2, 06/02/23 19:00, 0.5, 06/02/23 03:00, 0.92, 06/02/23 11:00, -5.1,  06/02/23 22:00, 38, 06/02/24 00:00, 0.5, 06/02/23 01:00, 0.9, 06/02/23 01:00, 1.9, 06/02/23 01:00, 
 06/02/24, -0.7, 74, 0.7, 1, 1.9, 0.5, 12.6, 3.2,  06/02/24 12:00, 97, 06/02/24 04:00, 0.7, 06/02/24 12:00, 1, 06/02/24 01:00, 2, 06/02/24 08:00, 0.5, 06/02/24 13:00, 1.9, 06/02/24 12:00, -6.1,  06/02/24 23:00, 32, 06/02/24 01:00, 0.6, 06/02/24 01:00, 1, 06/02/24 01:00, 1.9, 06/02/24 01:00, 
 06/02/25, 0.6, 68, 0.6, 1, 1.9, 0, 17.67, 6.6,  06/02/25 15:00, 98, 06/02/25 22:00, 0.7, 06/02/25 01:00, 1, 06/02/25 01:00, 1.9, 06/02/25 01:00, 0,   /  /     :, 2.75, 06/02/25 12:00, -4.8,  06/02/25 01:00, 46, 06/02/25 04:00, 0.5, 06/02/25 21:00, 1, 06/02/25 01:00, 1.9, 06/02/25 01:00, 
 06/02/26, 4.3, 93, 0.5, 0.9, 1.8, 26.5, 1.72, 7.3,  06/02/26 16:00, 99, 06/02/26 14:00, 0.6, 06/02/26 03:00, 1, 06/02/26 01:00, 1.9, 06/02/26 01:00, 4.5, 06/02/26 12:00, 0.25, 06/02/26 14:00, 0.8,  06/02/26 02:00, 81, 06/02/26 03:00, 0.4, 06/02/26 14:00, 0.8, 06/02/26 15:00, 1.7, 06/02/26 19:00, 
 06/02/27, -4.8, 98, 0.5, 0.9, 1.7, 0.5, 10.19, 0,  06/02/27 01:00, 99, 06/02/27 01:00, 0.5, 06/02/27 06:00, 1, 06/02/27 20:00, 1.8, 06/02/27 23:00, 0.5, 06/02/27 17:00, 1.67, 06/02/27 12:00, -8,  06/02/27 23:00, 88, 06/02/27 15:00, 0.4, 06/02/27 01:00, 0.8, 06/02/27 01:00, 1.7, 06/02/27 01:00, 
 06/02/28, -1, 93, 0.4, 0.9, 1.8, 1, 13.33, 5.7,  06/02/28 15:00, 99, 06/02/28 01:00, 0.5, 06/02/28 01:00, 1, 06/02/28 01:00, 1.8, 06/02/28 01:00, 0.5, 06/02/28 22:00, 2.09, 06/02/28 10:00, -8.4,  06/02/28 05:00, 70, 06/02/28 14:00, 0.3, 06/02/28 14:00, 0.9, 06/02/28 08:00, 1.8, 06/02/28 01:00, 
 06/03/01, 2, 99, 0.3, 0.8, 1.7, 40.5, 2.4, 6.3,  06/03/01 15:00, 99, 06/03/01 01:00, 0.3, 06/03/01 01:00, 0.9, 06/03/01 01:00, 1.8, 06/03/01 01:00, 4.5, 06/03/01 20:00, 0.47, 06/03/01 13:00, -2.8,  06/03/02 00:00, 98, 06/03/02 00:00, 0.3, 06/03/01 01:00, 0.8, 06/03/01 02:00, 1.6, 06/03/01 18:00, 
 06/03/02, -5.2, 94, 0.4, 0.9, 1.7, 1.5, 7.45, -2.6,  06/03/02 13:00, 99, 06/03/02 01:00, 0.5, 06/03/02 11:00, 0.9, 06/03/02 02:00, 1.8, 06/03/02 13:00, 0.5, 06/03/02 03:00, 1.34, 06/03/02 14:00, -8.2,  06/03/02 22:00, 80, 06/03/02 15:00, 0.3, 06/03/02 01:00, 0.8, 06/03/02 01:00, 1.6, 06/03/02 01:00, 
 06/03/03, -6.8, 91, 0.5, 0.9, 1.7, 1, 7.88, -3.7,  06/03/03 14:00, 97, 06/03/03 01:00, 0.5, 06/03/03 03:00, 1, 06/03/03 20:00, 1.7, 06/03/03 01:00, 0.5, 06/03/03 11:00, 1.35, 06/03/03 14:00, -9.4,  06/03/03 23:00, 76, 06/03/04 00:00, 0.4, 06/03/03 01:00, 0.9, 06/03/03 01:00, 1.7, 06/03/03 01:00, 
 06/03/04, -5.4, 67, 0.5, 0.9, 1.7, 0, 13.65, -0.7,  06/03/04 14:00, 82, 06/03/04 22:00, 0.6, 06/03/04 15:00, 1, 06/03/04 01:00, 1.7, 06/03/04 01:00, 0,   /  /     :, 2.72, 06/03/04 15:00, -9.8,  06/03/04 01:00, 44, 06/03/04 17:00, 0.5, 06/03/04 01:00, 0.9, 06/03/04 03:00, 1.7, 06/03/04 01:00, 
 06/03/05, -1.2, 59, 0.5, 0.9, 1.7, 0.5, 14.4, 3.9,  06/03/05 14:00, 80, 06/03/05 01:00, 0.5, 06/03/05 01:00, 0.9, 06/03/05 01:00, 1.7, 06/03/05 01:00, 0.5, 06/03/05 09:00, 2.52, 06/03/05 12:00, -7.3,  06/03/05 03:00, 33, 06/03/05 12:00, 0.4, 06/03/05 09:00, 0.9, 06/03/05 01:00, 1.7, 06/03/05 01:00, 
 06/03/06, 0.2, 96, 0.4, 0.9, 1.7, 7, 1.15, 1.3,  06/03/06 20:00, 99, 06/03/06 04:00, 0.4, 06/03/06 01:00, 0.9, 06/03/06 01:00, 1.7, 06/03/06 01:00, 2, 06/03/06 05:00, 0.28, 06/03/06 13:00, -2.1,  06/03/06 04:00, 68, 06/03/06 02:00, 0.4, 06/03/06 01:00, 0.8, 06/03/06 08:00, 1.7, 06/03/06 01:00, 
 06/03/07, 0.3, 75, 0.5, 0.9, 1.7, 0.5, 21.12, 6.7,  06/03/07 15:00, 99, 06/03/07 01:00, 0.5, 06/03/07 03:00, 0.9, 06/03/07 01:00, 1.7, 06/03/07 01:00, 0.5, 06/03/07 08:00, 3.04, 06/03/07 13:00, -5,  06/03/07 07:00, 48, 06/03/07 16:00, 0.4, 06/03/07 01:00, 0.8, 06/03/07 04:00, 1.7, 06/03/07 01:00, 
 06/03/08, 1.2, 62, 0.5, 0.9, 1.7, 0, 14.86, 4.7,  06/03/08 13:00, 95, 06/03/09 00:00, 0.5, 06/03/08 01:00, 0.9, 06/03/08 01:00, 1.7, 06/03/08 01:00, 0,   /  /     :, 2.61, 06/03/08 13:00, -4.4,  06/03/09 00:00, 27, 06/03/08 21:00, 0.5, 06/03/08 01:00, 0.8, 06/03/08 04:00, 1.7, 06/03/08 01:00, 
 06/03/09, -0.3, 78, 0.5, 0.9, 1.7, 0, 15.93, 5.9,  06/03/09 15:00, 99, 06/03/09 01:00, 0.6, 06/03/09 12:00, 0.9, 06/03/09 01:00, 1.7, 06/03/09 01:00, 0,   /  /     :, 2.47, 06/03/09 12:00, -7.7,  06/03/09 07:00, 35, 06/03/09 13:00, 0.4, 06/03/09 18:00, 0.8, 06/03/09 03:00, 1.7, 06/03/09 01:00, 
 06/03/10, 2.1, 95, 0.5, 0.9, 1.7, 4, 8.06, 5,  06/03/10 12:00, 99, 06/03/10 04:00, 0.6, 06/03/10 19:00, 1.1, 06/03/11 00:00, 1.7, 06/03/10 01:00, 1, 06/03/10 19:00, 1.65, 06/03/10 14:00, 0.6,  06/03/10 07:00, 80, 06/03/10 02:00, 0.5, 06/03/10 01:00, 0.9, 06/03/10 01:00, 1.7, 06/03/10 01:00, 
 06/03/11, 3.8, 84, 1, 1.3, 1.7, 1.5, 14.96, 7.6,  06/03/11 11:00, 99, 06/03/11 01:00, 1.5, 06/03/11 19:00, 1.7, 06/03/11 22:00, 1.8, 06/03/11 22:00, 0.5, 06/03/11 01:00, 2.62, 06/03/11 11:00, 0.3,  06/03/11 05:00, 59, 06/03/11 13:00, 0.6, 06/03/11 01:00, 1, 06/03/11 02:00, 1.7, 06/03/11 01:00, 
 06/03/12, -0.3, 96, 1.2, 1.6, 1.9, 10.5, 0.61, 3.6,  06/03/12 01:00, 99, 06/03/12 06:00, 1.4, 06/03/12 01:00, 1.7, 06/03/12 01:00, 2, 06/03/12 16:00, 2.5, 06/03/12 10:00, 0.14, 06/03/12 15:00, -6.2,  06/03/13 00:00, 85, 06/03/12 01:00, 1, 06/03/13 00:00, 1.5, 06/03/12 19:00, 1.8, 06/03/12 01:00, 
 06/03/13, -8.7, 82, 0.9, 1.4, 2, 2, 9.9, -6.1,  06/03/13 14:00, 93, 06/03/13 02:00, 1, 06/03/13 01:00, 1.6, 06/03/13 01:00, 2.1, 06/03/13 15:00, 0.5, 06/03/13 02:00, 1.28, 06/03/13 12:00, -11.5,  06/03/14 00:00, 60, 06/03/13 15:00, 0.7, 06/03/13 21:00, 1.3, 06/03/13 20:00, 1.9, 06/03/13 06:00, 
 06/03/14, -9.1, 83, 0.5, 1.2, 2, 1.5, 10.31, -5.5,  06/03/14 11:00, 97, 06/03/14 14:00, 0.7, 06/03/14 01:00, 1.3, 06/03/14 01:00, 2, 06/03/14 01:00, 1, 06/03/14 15:00, 1.7, 06/03/14 10:00, -13.1,  06/03/14 04:00, 71, 06/03/14 02:00, 0.4, 06/03/14 20:00, 1.1, 06/03/14 05:00, 2, 06/03/14 01:00, 
 06/03/15, -1.5, 61, 0.5, 1, 1.9, 0, 23.07, 6.1,  06/03/15 15:00, 84, 06/03/15 04:00, 0.5, 06/03/15 10:00, 1, 06/03/15 01:00, 2, 06/03/15 01:00, 0,   /  /     :, 3.2, 06/03/15 13:00, -9.3,  06/03/15 01:00, 35, 06/03/15 13:00, 0.4, 06/03/15 01:00, 0.9, 06/03/15 15:00, 1.9, 06/03/15 03:00, 
 06/03/16, 2.9, 73, 0.4, 0.9, 1.8, 31, 7.47, 6.1,  06/03/16 11:00, 99, 06/03/16 14:00, 0.5, 06/03/16 01:00, 1, 06/03/16 02:00, 1.9, 06/03/16 01:00, 6, 06/03/16 23:00, 1.91, 06/03/16 11:00, -2,  06/03/16 02:00, 34, 06/03/16 04:00, 0.3, 06/03/16 09:00, 0.8, 06/03/16 19:00, 1.7, 06/03/16 21:00, 
 06/03/17, -1.5, 98, 0.4, 0.9, 1.7, 37.5, 5.11, 0.1,  06/03/17 15:00, 99, 06/03/17 01:00, 0.4, 06/03/17 01:00, 0.9, 06/03/17 03:00, 1.7, 06/03/17 01:00, 6, 06/03/17 07:00, 1.42, 06/03/17 15:00, -4.4,  06/03/17 23:00, 80, 06/03/18 00:00, 0.4, 06/03/17 01:00, 0.8, 06/03/17 01:00, 1.6, 06/03/17 07:00, 
 06/03/18, 1.2, 88, 0.5, 0.9, 1.7, 3, 8.37, 4.4,  06/03/18 13:00, 99, 06/03/18 15:00, 0.5, 06/03/18 09:00, 1, 06/03/18 13:00, 1.7, 06/03/18 01:00, 1, 06/03/18 21:00, 1.48, 06/03/18 09:00, -3.4,  06/03/18 02:00, 60, 06/03/18 04:00, 0.4, 06/03/18 01:00, 0.8, 06/03/18 01:00, 1.7, 06/03/18 01:00, 
 06/03/19, -3.8, 94, 0.5, 1, 1.7, 4.5, 8.89, 1.8,  06/03/19 03:00, 99, 06/03/19 01:00, 0.5, 06/03/19 01:00, 1, 06/03/19 01:00, 1.7, 06/03/19 01:00, 0.5, 06/03/19 01:00, 1.53, 06/03/19 13:00, -8.8,  06/03/20 00:00, 81, 06/03/19 16:00, 0.5, 06/03/19 01:00, 1, 06/03/19 01:00, 1.7, 06/03/19 01:00, 